User: anonymous   Login
Location: The D'Auria's Ocala Star Observatory
(29.0276°N, 82.1742°W)
Time: 17:33:23
(UTC-05:00)
Language:

Abrixas rocket - Orbit

View from above orbital plane
View from above orbital plane
View from above satellite
View from above satellite

Ground track
Ground track

The orbit data is extracted from the following two-line orbital elements,

1 25723U 99022C   16039.75794185  .00014023  00000-0  28957-3 0  9990
2 25723  48.4182 268.8427 0013628 182.6777 294.0568 15.45923551929782
Epoch (UTC): 08 February 2016 18:11:26
Eccentricity: 0.0013628
inclination: 48.4182°
perigee height: 419 km
apogee height: 438 km
right ascension of ascending node: 268.8427°
argument of perigee: 182.6777°
revolutions per day: 15.45923551
mean anomaly at epoch: 294.0568°
orbit number at epoch: 92978

The dashed part of the orbit path shows where the satellite is in the earth's shadow,  

DLR